Home   Weather   Graz   Past weeks

Flag for Austria Past Weather in Graz, Styria, Austria — Yesterday and Last 2 Weeks

36 °F


Feels Like: 36 °F
Forecast: 31 / 58 °F
Wind: 2 mph from North

Location: Graz-Thalerhof-Flughafen

Current Time: Oct 23, 2016 at 8:19:05 AM

Latest Report: Oct 23, 2016 at 7:50 AM

Visibility: 0 mi

Pressure: 30.04 "Hg

Humidity: 100%

Dew Point: 36 °F

Location of GrazLocation

Past Weather in Graz — Graph


Graz Temperature Yesterday

Maximum temperature yesterday: 54 °F (at 1:50 PM)
Minimum temperature yesterday: 34 °F (at 6:20 AM)
Average temperature yesterday: 42 °F

High & Low Weather Summary for the Past Weeks

High64 °F (Oct 16, 2:20 PM)100% (Oct 8, 6:20 AM)30.30 "Hg (Oct 8, 6:20 AM)
Low28 °F (Oct 13, 5:50 AM)44% (Oct 12, 1:50 PM)29.89 "Hg (Oct 12, 1:20 AM)
Average46 °F88%30.08 "Hg
* Reported Oct 8 6:20 AM — Oct 23 6:50 AM, Graz, Weather by CustomWeather, © 2016

Note: Actual official high and low records may vary slightly from our data, if they occured in-between our weather recording intervals... More about our weather records


Graz Weather History for the Previous 24 Hours

Scroll right to see more
Time TempWeatherWind HumidityBarometerVisibility
6:50 AM
Sun, Oct 23
37 °FFog.1 mph100%30.04 "Hg0 mi
6:20 AM36 °FFog.2 mph100%30.04 "Hg0 mi
5:50 AM36 °FFog.2 mph100%30.04 "Hg0 mi
5:20 AM36 °FFog.2 mph100%30.04 "Hg0 mi
4:50 AM36 °FFog.2 mph100%30.04 "Hg0 mi
4:20 AM36 °FSnow flurries. Fog.2 mph100%30.04 "Hg0 mi
3:50 AM36 °FFog.3 mph100%30.04 "Hg0 mi
3:20 AM36 °FFog.2 mph100%30.04 "Hg0 mi
2:50 AM36 °FFog.1 mph100%30.04 "Hg1 mi
2:20 AM36 °FPassing clouds.1 mph100%30.04 "Hg1 mi
1:50 AM34 °FPassing clouds.2 mph100%30.04 "Hg1 mi
1:20 AM36 °FLight fog.1 mph100%30.04 "Hg1 mi
12:50 AM36 °FLight fog.1 mph100%30.04 "Hg0 mi
11:50 PM
Sat, Oct 22
39 °FPassing clouds.1 mph100%30.04 "HgN/A
11:20 PM39 °FClear.2 mph100%30.04 "Hg10 mi
10:50 PM41 °FClear.2 mph93%30.04 "Hg10 mi
10:20 PM43 °FClear.2 mph87%30.04 "Hg10 mi
9:50 PM43 °FClear.1 mph87%30.04 "Hg10 mi
9:20 PM43 °FClear.2 mph87%30.04 "Hg10 mi
8:50 PM43 °FClear.3 mph87%30.04 "Hg10 mi
8:20 PM43 °FPassing clouds.3 mph87%30.04 "HgN/A
7:50 PM45 °FPassing clouds.3 mph81%30.01 "HgN/A
7:20 PM46 °FPassing clouds.5 mph82%30.01 "HgN/A
6:50 PM45 °FPassing clouds.3 mph87%30.01 "HgN/A
6:20 PM46 °FPassing clouds.7 mph82%30.01 "HgN/A
5:50 PM50 °FScattered clouds.7 mph76%30.01 "HgN/A
5:20 PM52 °FScattered clouds.5 mph67%29.98 "HgN/A
4:50 PM50 °FScattered clouds.5 mph71%29.98 "HgN/A
4:20 PM54 °FScattered clouds.8 mph67%29.98 "HgN/A
3:50 PM54 °FScattered clouds.7 mph63%29.98 "HgN/A
3:20 PM54 °FPassing clouds.8 mph63%30.01 "HgN/A
2:50 PM54 °FPassing clouds.8 mph63%30.01 "HgN/A
2:20 PM54 °FPassing clouds.6 mph67%30.01 "HgN/A
1:50 PM54 °FPassing clouds.7 mph67%30.01 "HgN/A
1:20 PM52 °FPassing clouds.8 mph67%30.01 "HgN/A
12:50 PM50 °FPassing clouds.6 mph76%30.04 "HgN/A
12:20 PM48 °FPassing clouds.3 mph76%30.04 "HgN/A
11:50 AM46 °FPassing clouds.2 mph93%30.04 "HgN/A
11:20 AM45 °FPassing clouds.2 mph93%30.04 "HgN/A
10:50 AM43 °FSnow. Fog.1 mph93%30.04 "HgN/A
10:20 AM39 °FSnow. Cloudy.1 mph100%30.04 "Hg1 mi
9:50 AM37 °FFog.1 mph100%30.04 "Hg0 mi
9:20 AM37 °FFog.2 mph100%30.04 "Hg0 mi
8:50 AM36 °FFog.2 mph100%30.04 "Hg1 mi
8:20 AM36 °FFog.2 mph100%30.04 "Hg1 mi
Weather by CustomWeather, © 2016

See weather overviewHow to use our weather pages